User: anonymous   Login
Location: Moscow
(38.8570°N, 84.2291°W)
Time: 11:17:51
(UTC+00:00)
Language:

Oscar 11 - Orbit

View from above orbital plane
View from above orbital plane
View from above satellite
View from above satellite

Ground track
Ground track

The orbit is defined by the following mean orbital elements,

1 14781U          26071.15753353 +.00000000 +00000-0 +17360-3 0 00002
2 14781  97.7946  37.8942 0008579 136.5782 223.6113 14.90516363    05
Epoch (UTC): 12 March 2026 03:46:50
Eccentricity: 0.0008579
inclination: 97.7946°
perigee height: 590 km
apogee height: 602 km
right ascension of ascending node: 37.8942°
argument of perigee: 136.5782°
revolutions per day: 14.90516363
mean anomaly at epoch: 223.6113°

The dashed part of the orbit path shows where the satellite is in the earth's shadow,  

DLR